CW1767 Weather Reports


Display with metric or nautical units.
time (UTC)temp
F
wind
direction
speed
MPH
gust
MPH
rain 1hr
in
rain 24hr
in
rain mn
in
humidity
%
barometer
mb
20260509071524 51 126 0.0 0.0 0.00 0.00 0.00 81 1013.3
20260509070024 51 126 0.0 0.0 0.00 0.00 0.00 79 1013.3
20260509064523 51 126 0.0 0.0 0.00 0.00 0.00 78 1013.3
20260509063022 51 126 0.0 1.0 0.00 0.00 0.00 78 1013.4
20260509061520 51 126 0.0 0.0 0.00 0.00 0.00 77 1013.4
20260509060022 51 126 0.0 1.0 0.00 0.00 0.00 77 1013.4
20260509054519 51 126 0.0 0.0 0.00 0.00 0.00 76 1013.5
20260509053018 51 126 0.0 0.0 0.00 0.00 0.00 75 1013.5
20260509051518 51 126 0.0 0.0 0.00 0.00 0.00 74 1013.6
20260509050016 51 126 0.0 0.0 0.00 0.00 0.00 72 1013.6
20260509044512 52 126 0.0 0.0 0.00 0.00 0.00 71 1013.7
20260509043011 52 126 0.0 0.0 0.00 0.00 0.00 70 1013.7
20260509041508 53 126 0.0 0.0 0.00 0.00 0.00 68 1014.0
20260509040006 53 126 0.0 1.0 0.00 0.00 0.00 67 1014.2
20260509034521 53 127 0.0 1.0 0.00 0.00 0.00 67 1014.1
20260509033005 53 113 0.0 1.0 0.00 0.00 0.00 65 1014.1
20260509031507 54 113 0.0 1.0 0.00 0.00 0.00 64 1014.1
20260509030004 54 136 0.0 1.0 0.00 0.00 0.00 63 1014.0
20260509024504 54 136 0.0 1.0 0.00 0.00 0.00 62 1013.9
20260509023005 54 135 0.0 1.0 0.00 0.00 0.00 61 1014.1
20260509021502 55 136 0.0 1.0 0.00 0.00 0.00 60 1014.1
20260509020002 56 135 0.0 1.0 0.00 0.00 0.00 59 1014.0
20260509014502 56 135 0.0 1.0 0.00 0.00 0.00 59 1013.9
20260509013003 57 136 0.0 1.0 0.00 0.00 0.00 59 1013.9
20260509011501 58 136 0.0 1.0 0.00 0.00 0.00 58 1013.9
20260509010002 58 121 0.0 1.0 0.00 0.00 0.00 58 1013.5
20260509004622 59 119 0.0 3.0 0.00 0.00 0.00 57 1013.4
20260509003100 60 151 0.0 0.0 0.00 0.00 0.00 56 1013.2
20260509001559 60 160 0.0 1.0 0.00 0.00 0.00 53 1012.8
20260509000059 61 160 0.0 0.0 0.00 0.00 0.00 50 1013.1
20260508234606 62 166 0.0 0.0 0.00 0.00 0.00 49 1012.9
20260508233059 63 166 0.0 0.0 0.00 0.00 0.00 48 1012.8
20260508231559 63 114 0.0 1.0 0.00 0.00 0.00 45 1012.7
20260508230057 64 164 0.0 1.0 0.00 0.00 0.00 43 1012.7
20260508224558 64 119 1.0 3.0 0.00 0.00 0.00 42 1012.7
20260508223056 65 165 0.0 2.0 0.00 0.00 0.00 42 1012.7
20260508221555 65 188 0.0 3.0 0.00 0.00 0.00 41 1012.6
20260508220059 65 122 0.0 3.0 0.00 0.00 0.00 40 1012.7
20260508214607 65 128 0.0 6.0 0.00 0.08 0.00 39 1012.6
20260508213055 66 136 0.0 4.0 0.00 0.08 0.00 40 1012.6
20260508211555 66 155 0.0 3.0 0.00 0.08 0.00 40 1012.7
20260508210055 66 196 0.0 3.0 0.00 0.08 0.00 41 1012.8
20260508204554 66 140 0.0 4.0 0.00 0.13 0.00 41 1013.0
20260508203053 67 173 0.0 3.0 0.00 0.13 0.00 39 1013.2
20260508201552 67 119 0.0 3.0 0.00 0.13 0.00 38 1013.2
20260508200052 68 247 0.0 3.0 0.00 0.13 0.00 38 1013.4
20260508194554 68 184 0.0 4.0 0.00 0.13 0.00 38 1013.4
20260508193102 69 121 0.0 3.0 0.00 0.13 0.00 35 1013.6
20260508191556 70 136 0.0 2.0 0.00 0.13 0.00 36 1013.7
20260508190105 69 189 1.0 5.0 0.00 0.13 0.00 35 1013.8
20260508184552 69 140 0.0 3.0 0.00 0.13 0.00 38 1013.9
20260508183109 69 146 0.0 3.0 0.00 0.13 0.00 38 1014.1
20260508181551 69 198 0.0 4.0 0.00 0.13 0.00 36 1014.2
20260508180059 69 154 1.0 5.0 0.00 0.13 0.00 35 1014.3
20260508174601 69 180 0.0 2.0 0.00 0.13 0.00 41 1014.3
20260508173046 69 215 1.0 3.0 0.00 0.13 0.00 36 1014.3
20260508171544 69 216 0.0 4.0 0.00 0.13 0.00 34 1014.4
20260508170046 68 202 1.0 3.0 0.00 0.13 0.00 35 1014.5
20260508164549 69 267 1.0 3.0 0.00 0.13 0.00 35 1014.6
20260508163039 67 177 0.0 3.0 0.00 0.13 0.00 35 1014.7
20260508161538 67 163 0.0 3.0 0.00 0.13 0.00 38 1014.8
20260508160038 66 205 2.0 4.0 0.00 0.13 0.00 38 1015.0
20260508154536 65 196 0.0 4.0 0.00 0.13 0.00 37 1015.0
20260508153042 62 173 0.0 2.0 0.00 0.13 0.00 43 1015.1
20260508151602 61 190 0.0 3.0 0.00 0.13 0.00 44 1015.1
20260508150056 60 221 0.0 1.0 0.00 0.13 0.00 44 1015.3
20260508144553 59 218 0.0 1.0 0.00 0.13 0.00 51 1015.3
20260508143055 58 280 0.0 1.0 0.00 0.13 0.00 51 1015.4
20260508141600 58 240 0.0 2.0 0.00 0.13 0.00 53 1015.5
20260508140045 57 327 0.0 2.0 0.00 0.13 0.00 57 1015.5
20260508134543 56 259 0.0 2.0 0.00 0.13 0.00 60 1015.5
20260508133040 56 337 1.0 2.0 0.00 0.13 0.00 58 1015.4
20260508131536 55 261 0.0 2.0 0.00 0.13 0.00 67 1015.3
20260508130039 54 242 0.0 2.0 0.00 0.13 0.00 67 1015.3
20260508124535 54 255 0.0 1.0 0.00 0.13 0.00 74 1015.1
20260508123028 53 217 0.0 1.0 0.00 0.13 0.00 76 1015.1
20260508121524 52 198 0.0 1.0 0.00 0.13 0.00 81 1014.9
20260508120020 50 188 0.0 0.0 0.00 0.13 0.00 85 1014.9
20260508114516 48 186 0.0 0.0 0.00 0.13 0.00 91 1014.9
20260508113015 47 186 0.0 0.0 0.00 0.13 0.00 90 1014.8
20260508111510 47 186 0.0 0.0 0.00 0.13 0.00 91 1014.6
20260508110009 47 186 0.0 0.0 0.00 0.13 0.00 91 1014.4
20260508104506 47 186 0.0 0.0 0.00 0.13 0.00 91 1014.1
20260508103010 46 186 0.0 1.0 0.00 0.13 0.00 92 1013.9
20260508101504 46 184 0.0 0.0 0.00 0.13 0.00 93 1013.8
20260508100001 46 183 0.0 0.0 0.00 0.13 0.00 93 1013.5
20260508094501 46 184 0.0 0.0 0.00 0.13 0.00 93 1013.4
20260508093106 47 183 0.0 0.0 0.00 0.13 0.00 93 1013.2
20260508091558 47 184 0.0 0.0 0.00 0.13 0.00 94 1012.9
20260508090108 47 183 0.0 0.0 0.00 0.13 0.00 93 1012.9
20260508084558 47 183 0.0 0.0 0.00 0.14 0.00 93 1012.7
20260508083057 47 183 0.0 0.0 0.00 0.14 0.00 93 1012.5
20260508081558 47 183 0.0 0.0 0.00 0.14 0.00 93 1012.4
20260508080050 47 183 0.0 0.0 0.00 0.14 0.00 94 1012.0
20260508074551 47 183 0.0 0.0 0.00 0.14 0.00 94 1011.9
20260508073046 46 183 0.0 0.0 0.00 0.14 0.00 93 1011.7